Shiyan 12-02

operational
NORAD ID: 50322 Int'l Des: 2021-129 Owner: CAST Country: CN
HEOCIRCULAR

Über Shiyan 12-02

Beschreibung wird geladen...

Live-Position

3D-Globus wird geladen...

Nächste Überflüge

Höhenverlauf

Altitude vs Time

uPlot chart will show altitude changes over time

Zweizeiliger Elementsatz

1 50322U 21129B 26061.19642995 .00000109 00000-0 00000+0 0 9996
2 50322 3.3987 81.4032 0003544 221.2403 313.6135 1.00092310 15422
Epoch: 2. März 2026 • Age: 24 hours

Aktueller Status

Höhe 35841.6 km
Geschwindigkeit 3.07 km/s
Subsatellitenpunkt 3.22°N, 25.05°E
Startdatum 23. Dez. 2021
Alter 4.1 years
Typ other

Technische Details

Klassifizierung Payload
Masse 3000.00 kg
Trockenmasse 2000.00 kg
Gesamtmasse 3000.00 kg
Länge 5.00 m
Durchmesser 3.00 m
Spannweite 9.00 m
Form Box + 2 pan
Hersteller CAST
Bus-Typ XYZ
Phasenstatus In Orbit
Besitzer/Staat CAST/CN

Große Konstellationen

Loading constellations...